Location: Santa Maria di Sala
(45.5070°N, 12.0300°E)
Time: 05:51:35
(UTC+01:00)

Envisat - Pass Details

Date: 29 September 2023
Orbit: 762 x 764 km, 98.3° (Epoch: 09 December)

Event Time Altitude Azimuth Distance (km) Brightness Sun altitude
Rises 05:36:31 0° 7° (N) 3,243 6.5 -16.5°
Reaches altitude 10° 05:38:55 10° 1° (N) 2,312 5.7 -16.1°
Maximum altitude 05:43:42 43° 291° (WNW) 1,069 3.4 -15.3°
Enters shadow 05:47:07 18° 228° (SW) 1,812 4.4 -14.7°
